FIN2KW EFHK-LIMC

Flight info

Callsign FIN2KW
Flight time N/A
Altitude 38000
Route VALOX DCT DANKA DCT ROSAX DCT LEMSI DCT PIMEX P739 DEREX DCT ANFEV DCT PENOR DCT RASAN/N0482F400 DCT ASTEL DCT RUDAP DCT EBEDA DCT BADVI DCT BERAS DCT OLPIX/N0482F390 DCT EKPEB DCT NAXAV DCT RENTA DCT ATPED DCT LUSIL DCT EVRIP
Aircraft A346/H-SDE2E3FGHIJ3J4J5M1RWXY/LB1D1

Departure

Time 2026-05-07 11:44
Airport Helsinki Vantaa Airport (EFHK)

Arrival

Time N/A
Airport Milan Malpensa International Airport (LIMC)
Time Latitude Longitude Altitude Speed Heading
2026-05-07 11:22 60.32947 24.95247 176 ft 0 kts 140°
2026-05-07 11:39 60.32934 24.95270 175 ft 4 kts 138°
2026-05-07 11:39 60.32902 24.95336 172 ft 9 kts 135°
2026-05-07 11:40 60.32860 24.95340 171 ft 4 kts 200°
2026-05-07 11:40 60.32843 24.95314 172 ft 2 kts 219°
2026-05-07 11:40 60.32824 24.95276 173 ft 7 kts 225°
2026-05-07 11:40 60.32779 24.95181 174 ft 12 kts 226°
2026-05-07 11:41 60.32750 24.95051 176 ft 6 kts 281°
2026-05-07 11:41 60.32782 24.94989 179 ft 8 kts 328°
2026-05-07 11:41 60.32851 24.94936 182 ft 13 kts 340°
2026-05-07 11:41 60.32939 24.94845 197 ft 8 kts 330°
2026-05-07 11:42 60.32943 24.94840 204 ft 1 kts 327°
2026-05-07 11:42 60.32946 24.94835 204 ft 0 kts 324°
2026-05-07 11:42 60.32988 24.94758 206 ft 16 kts 312°
2026-05-07 11:42 60.33101 24.94526 211 ft 20 kts 311°
2026-05-07 11:43 60.33074 24.94289 208 ft 21 kts 221°
2026-05-07 11:43 60.33062 24.94265 203 ft 0 kts 227°
2026-05-07 11:43 60.33051 24.94240 204 ft 16 kts 227°
2026-05-07 11:43 60.32797 24.93698 199 ft 87 kts 229°
2026-05-07 11:44 60.32256 24.92512 177 ft 144 kts 229°
2026-05-07 11:44 60.31552 24.90996 762 ft 140 kts 220°
2026-05-07 11:44 60.30833 24.89868 1526 ft 123 kts 209°
2026-05-07 11:44 60.30062 24.89259 1934 ft 128 kts 192°
2026-05-07 11:45 60.29499 24.87806 2156 ft 139 kts 272°
2026-05-07 11:45 60.29510 24.85867 2555 ft 149 kts 246°
2026-05-07 11:45 60.29007 24.83879 2886 ft 172 kts 237°
2026-05-07 11:45 60.28305 24.81725 3272 ft 196 kts 236°
2026-05-07 11:46 60.27483 24.79247 3590 ft 228 kts 236°
2026-05-07 11:46 60.26657 24.76358 4198 ft 246 kts 246°
2026-05-07 11:46 60.25994 24.73115 5074 ft 255 kts 250°
2026-05-07 11:46 60.25345 24.69749 6010 ft 261 kts 250°
2026-05-07 11:47 60.24674 24.66328 6917 ft 265 kts 249°
2026-05-07 11:47 60.23769 24.63082 7769 ft 269 kts 231°
2026-05-07 11:47 60.22309 24.60703 8679 ft 273 kts 210°
2026-05-07 11:47 60.20606 24.58977 9575 ft 275 kts 207°
2026-05-07 11:48 60.18868 24.57346 10373 ft 279 kts 206°
2026-05-07 11:48 60.17684 24.56231 10641 ft 290 kts 207°
2026-05-07 11:48 60.15806 24.54443 10964 ft 307 kts 207°
2026-05-07 11:48 60.13827 24.52547 11297 ft 323 kts 207°
2026-05-07 11:49 60.11746 24.50548 11625 ft 340 kts 207°
2026-05-07 11:49 60.09570 24.48458 11994 ft 354 kts 207°
2026-05-07 11:49 60.07321 24.46300 12578 ft 361 kts 208°
2026-05-07 11:49 60.05046 24.44123 13285 ft 364 kts 208°
2026-05-07 11:50 60.02750 24.41927 14003 ft 368 kts 208°
2026-05-07 11:50 60.00432 24.39711 14650 ft 370 kts 208°
2026-05-07 11:50 59.98105 24.37489 15301 ft 372 kts 208°
2026-05-07 11:50 59.95761 24.35255 15917 ft 375 kts 208°
2026-05-07 11:51 59.93394 24.33002 16483 ft 378 kts 208°
2026-05-07 11:51 59.91016 24.30742 17117 ft 380 kts 208°
2026-05-07 11:51 59.88623 24.28472 17728 ft 382 kts 209°
2026-05-07 11:51 59.86220 24.26194 18322 ft 384 kts 209°
2026-05-07 11:52 59.83797 24.23903 18830 ft 386 kts 209°
2026-05-07 11:52 59.81370 24.21611 19338 ft 388 kts 209°
2026-05-07 11:52 59.78929 24.19310 19848 ft 389 kts 209°
2026-05-07 11:52 59.76479 24.17004 20348 ft 390 kts 209°
2026-05-07 11:53 59.74028 24.14662 20829 ft 391 kts 211°
2026-05-07 11:53 59.71690 24.11934 21330 ft 390 kts 216°
2026-05-07 11:53 59.69442 24.08935 21767 ft 390 kts 218°
2026-05-07 11:53 59.67235 24.05799 22246 ft 391 kts 219°
2026-05-07 11:54 59.65042 24.02610 22721 ft 392 kts 219°
2026-05-07 11:54 59.62842 23.99412 23168 ft 393 kts 219°
2026-05-07 11:54 59.60628 23.96222 23607 ft 395 kts 219°
2026-05-07 11:54 59.58395 23.93039 23966 ft 396 kts 219°
2026-05-07 11:55 59.56151 23.89864 24322 ft 398 kts 219°
2026-05-07 11:55 59.53895 23.86690 24662 ft 399 kts 219°
2026-05-07 11:55 59.51625 23.83509 24998 ft 401 kts 219°
2026-05-07 11:55 59.49358 23.80301 25341 ft 401 kts 220°
2026-05-07 11:56 59.47237 23.76746 25654 ft 400 kts 226°
2026-05-07 11:56 59.45272 23.72874 25991 ft 401 kts 228°
2026-05-07 11:56 59.43349 23.68885 26317 ft 402 kts 229°
2026-05-07 11:56 59.41454 23.64846 26630 ft 403 kts 229°
2026-05-07 11:57 59.39562 23.60771 26939 ft 404 kts 229°
2026-05-07 11:57 59.37667 23.56688 27237 ft 405 kts 229°
2026-05-07 11:57 59.35763 23.52600 27534 ft 407 kts 229°
2026-05-07 11:57 59.33848 23.48510 27822 ft 408 kts 229°
2026-05-07 11:58 59.31923 23.44419 28103 ft 409 kts 229°
2026-05-07 11:58 59.29987 23.40319 28380 ft 410 kts 229°
2026-05-07 11:58 59.28044 23.36216 28662 ft 412 kts 229°
2026-05-07 11:58 59.26095 23.32109 28943 ft 412 kts 229°
2026-05-07 11:59 59.24146 23.28010 29265 ft 411 kts 229°
2026-05-07 11:59 59.22202 23.23930 29537 ft 411 kts 229°
2026-05-07 11:59 59.20251 23.19841 29853 ft 411 kts 229°
2026-05-07 11:59 59.18307 23.15773 30231 ft 409 kts 229°
2026-05-07 12:00 59.16366 23.11719 30517 ft 408 kts 229°
2026-05-07 12:00 59.14426 23.07676 30757 ft 408 kts 229°
2026-05-07 12:00 59.12488 23.03642 30995 ft 408 kts 229°
2026-05-07 12:00 59.10548 22.99608 31250 ft 408 kts 229°
2026-05-07 12:01 59.08604 22.95576 31479 ft 408 kts 229°
2026-05-07 12:01 59.06663 22.91555 31706 ft 408 kts 229°
2026-05-07 12:01 59.04719 22.87538 32028 ft 408 kts 229°
2026-05-07 12:01 59.02802 22.83582 32258 ft 408 kts 229°
2026-05-07 12:02 59.00856 22.79572 32373 ft 409 kts 229°
2026-05-07 12:02 58.98900 22.75538 32521 ft 411 kts 229°
2026-05-07 12:02 58.96941 22.71515 32756 ft 410 kts 229°
2026-05-07 12:02 58.94981 22.67503 32999 ft 410 kts 229°
2026-05-07 12:03 58.93019 22.63495 33213 ft 410 kts 229°
2026-05-07 12:03 58.91058 22.59495 33430 ft 410 kts 229°
2026-05-07 12:03 58.89101 22.55507 33619 ft 410 kts 229°
2026-05-07 12:03 58.87137 22.51513 33834 ft 410 kts 229°
2026-05-07 12:04 58.85172 22.47521 34014 ft 410 kts 229°
2026-05-07 12:04 58.83208 22.43540 34183 ft 410 kts 229°
2026-05-07 12:04 58.81241 22.39559 34320 ft 410 kts 228°
2026-05-07 12:04 58.79268 22.35573 34427 ft 411 kts 228°
2026-05-07 12:05 58.77286 22.31574 34487 ft 413 kts 228°
2026-05-07 12:05 58.75300 22.27576 34629 ft 413 kts 228°
2026-05-07 12:05 58.73313 22.23584 34790 ft 413 kts 228°
2026-05-07 12:05 58.71324 22.19594 34921 ft 414 kts 228°
2026-05-07 12:06 58.69328 22.15597 35037 ft 414 kts 228°
2026-05-07 12:06 58.67335 22.11613 35177 ft 414 kts 228°
2026-05-07 12:06 58.65336 22.07623 35287 ft 415 kts 228°
2026-05-07 12:06 58.63332 22.03633 35432 ft 415 kts 228°
2026-05-07 12:07 58.61327 21.99645 35536 ft 415 kts 228°
2026-05-07 12:07 58.59318 21.95656 35641 ft 416 kts 228°
2026-05-07 12:07 58.57308 21.91673 35718 ft 417 kts 228°
2026-05-07 12:08 58.53264 21.83682 35925 ft 418 kts 228°
2026-05-07 12:08 58.51242 21.79696 36048 ft 418 kts 228°
2026-05-07 12:08 58.49217 21.75712 36160 ft 418 kts 228°
2026-05-07 12:08 58.47185 21.71722 36268 ft 419 kts 228°
2026-05-07 12:09 58.45155 21.67742 36368 ft 419 kts 227°
2026-05-07 12:09 58.43120 21.63759 36503 ft 419 kts 227°
2026-05-07 12:09 58.41077 21.59767 36572 ft 421 kts 227°
2026-05-07 12:10 58.36983 21.51790 36770 ft 421 kts 227°
2026-05-07 12:10 58.32903 21.43867 36893 ft 423 kts 227°
2026-05-07 12:11 58.28783 21.35896 37098 ft 423 kts 227°
2026-05-07 12:11 58.26718 21.31912 37205 ft 423 kts 227°
2026-05-07 12:11 58.24652 21.27932 37289 ft 423 kts 227°
2026-05-07 12:12 58.20517 21.19984 37467 ft 423 kts 227°
2026-05-07 12:12 58.16357 21.12070 37652 ft 424 kts 227°
2026-05-07 12:13 58.12172 21.04187 37747 ft 425 kts 227°
2026-05-07 12:13 58.07976 20.96303 37919 ft 425 kts 227°
2026-05-07 12:14 58.03776 20.88427 38072 ft 426 kts 227°
2026-05-07 12:14 57.99553 20.80529 38072 ft 429 kts 226°
2026-05-07 12:15 57.95289 20.72583 38071 ft 433 kts 226°
2026-05-07 12:15 57.90985 20.64591 38048 ft 436 kts 226°
2026-05-07 12:16 57.86646 20.56565 38074 ft 439 kts 226°
2026-05-07 12:16 57.82270 20.48499 38073 ft 443 kts 226°
2026-05-07 12:17 57.77854 20.40389 38079 ft 446 kts 226°
2026-05-07 12:17 57.73425 20.32284 38073 ft 445 kts 226°
2026-05-07 12:18 57.69015 20.24244 38043 ft 446 kts 226°
2026-05-07 12:18 57.64531 20.16226 38078 ft 447 kts 224°
2026-05-07 12:19 57.59894 20.08507 38075 ft 447 kts 223°
2026-05-07 12:19 57.55226 20.00834 38072 ft 447 kts 223°
2026-05-07 12:20 57.50580 19.93148 38070 ft 447 kts 224°
2026-05-07 12:20 57.45938 19.85449 38062 ft 447 kts 224°
2026-05-07 12:21 57.41292 19.77759 38072 ft 448 kts 223°
2026-05-07 12:21 57.36636 19.70084 38076 ft 448 kts 223°
2026-05-07 12:22 57.31975 19.62428 38078 ft 448 kts 223°
2026-05-07 12:22 57.27309 19.54793 38074 ft 448 kts 223°
2026-05-07 12:23 57.22637 19.47175 38075 ft 448 kts 223°
2026-05-07 12:23 57.17962 19.39579 38078 ft 448 kts 223°
2026-05-07 12:24 57.13282 19.32001 38078 ft 448 kts 223°
2026-05-07 12:24 57.08595 19.24438 38071 ft 448 kts 223°
2026-05-07 12:25 57.03896 19.16883 38079 ft 449 kts 223°
2026-05-07 12:25 56.99187 19.09337 38064 ft 450 kts 223°
2026-05-07 12:26 56.94498 19.01850 38076 ft 450 kts 223°
2026-05-07 12:26 56.89767 18.94324 38071 ft 450 kts 223°
2026-05-07 12:27 56.85034 18.86819 38070 ft 450 kts 223°
2026-05-07 12:27 56.80302 18.79342 38071 ft 450 kts 222°
2026-05-07 12:28 56.75558 18.71872 38085 ft 451 kts 222°
2026-05-07 12:28 56.70808 18.64417 38086 ft 451 kts 222°
2026-05-07 12:29 56.66053 18.56982 38066 ft 451 kts 222°
2026-05-07 12:29 56.61296 18.49568 38089 ft 451 kts 222°
2026-05-07 12:30 56.56532 18.42170 38085 ft 450 kts 222°
2026-05-07 12:30 56.51766 18.34794 38081 ft 451 kts 222°
2026-05-07 12:31 56.46992 18.27429 38080 ft 451 kts 222°
2026-05-07 12:31 56.42211 18.20081 38081 ft 451 kts 221°
2026-05-07 12:32 56.37738 18.13228 38077 ft 451 kts 221°